CW6301 Weather Reports


time (UTC)temp
C
wind
direction
speed
KPH
gust
KPH
rain 1hr
cm
rain 24hr
cm
rain mn
cm
humidity
%
barometer
mb
20260906144604 22 94 6.4 14.5 0.00 0.00 0.00 83 1018.9
20260906143019 21 96 6.4 12.9 0.00 0.00 0.00 86 1018.9
20260906141550 21 96 6.4 12.9 0.00 0.00 0.00 85 1019.0
20260906140002 20 98 6.4 11.3 0.00 0.00 0.00 89 1019.0
20260906134536 20 91 4.8 9.7 0.00 0.00 0.00 91 1019.0
20260906133004 18 95 3.2 6.4 0.00 0.00 0.00 94 1018.9
20260906131531 18 93 1.6 4.8 0.00 0.00 0.00 95 1018.8
20260906130106 18 179 0.0 3.2 0.00 0.00 0.00 95 1018.8
20260906124514 18 91 0.0 3.2 0.00 0.00 0.00 97 1018.7
20260906123046 17 95 0.0 1.6 0.00 0.00 0.00 97 1018.5
20260906121517 16 95 0.0 1.6 0.00 0.00 0.00 97 1018.4
20260906120048 16 95 0.0 1.6 0.00 0.00 0.00 97 1018.1
20260906114603 16 96 0.0 3.2 0.00 0.00 0.00 97 1017.7
20260906113031 15 168 0.0 0.0 0.00 0.00 0.00 97 1017.7
20260906111603 15 158 0.0 0.0 0.00 0.00 0.00 97 1017.5
20260906110012 15 158 0.0 0.0 0.00 0.00 0.00 96 1017.3
20260906104547 15 158 0.0 0.0 0.00 0.00 0.00 96 1017.4
20260906103011 15 158 0.0 0.0 0.00 0.00 0.00 96 1017.3
20260906101543 15 158 0.0 0.0 0.00 0.00 0.00 96 1017.3
20260906100114 16 158 0.0 0.0 0.00 0.00 0.00 96 1017.3
20260906094553 16 158 0.0 0.0 0.00 0.00 0.00 96 1017.2
20260906093132 16 158 0.0 0.0 0.00 0.00 0.00 96 1017.2
20260906091531 16 158 0.0 0.0 0.00 0.00 0.00 96 1017.2
20260906090103 16 160 0.0 0.0 0.00 0.00 0.00 96 1017.2
20260906084521 16 160 0.0 0.0 0.00 0.00 0.00 96 1017.1
20260906083051 15 160 0.0 0.0 0.00 0.00 0.00 96 1017.1
20260906081520 15 161 0.0 0.0 0.00 0.00 0.00 96 1017.1
20260906080053 15 173 0.0 0.0 0.00 0.00 0.00 96 1017.1
20260906074501 15 173 0.0 0.0 0.00 0.00 0.00 95 1016.8
20260906073032 15 173 0.0 0.0 0.00 0.00 0.00 95 1016.9
20260906071502 15 173 0.0 0.0 0.00 0.00 0.00 95 1016.8
20260906070034 15 173 0.0 0.0 0.00 0.00 0.00 94 1016.7
20260906064551 15 173 0.0 0.0 0.00 0.00 0.00 94 1016.7
20260906063022 15 173 0.0 0.0 0.00 0.00 0.00 94 1016.8
20260906061554 15 173 0.0 0.0 0.00 0.00 0.00 94 1016.8
20260906060010 15 173 0.0 0.0 0.00 0.00 0.00 94 1016.9
20260906054543 16 173 0.0 0.0 0.00 0.00 0.00 93 1016.7
20260906053011 16 173 0.0 0.0 0.00 0.00 0.00 92 1016.6
20260906051555 16 173 0.0 0.0 0.00 0.00 0.00 91 1016.3
20260906050115 16 173 0.0 0.0 0.00 0.00 0.00 91 1016.3
20260906044532 17 173 0.0 3.2 0.00 0.00 0.00 91 1016.3
20260906043105 17 176 0.0 1.6 0.00 0.00 0.00 91 1016.3
20260906041532 17 169 0.0 0.0 0.00 0.00 0.00 90 1016.3
20260906040059 17 169 0.0 3.2 0.00 0.00 0.00 89 1016.1
20260906034502 17 175 0.0 3.2 0.00 0.00 0.00 89 1016.1
20260906033044 18 178 0.0 4.8 0.00 0.00 0.00 89 1015.7
20260906031506 18 92 1.6 4.8 0.00 0.00 0.00 90 1015.7
20260906030012 18 91 0.0 4.8 0.00 0.00 0.00 90 1015.8
20260906024546 18 176 0.0 4.8 0.00 0.00 0.00 89 1016.0
20260906023005 18 171 1.6 4.8 0.00 0.00 0.00 88 1015.8
20260906021537 19 172 0.0 6.4 0.00 0.00 0.00 89 1015.7
20260906020109 19 174 1.6 3.2 0.00 0.00 0.00 91 1015.5
20260906014537 19 90 0.0 1.6 0.00 0.00 0.00 92 1015.4
20260906013100 20 92 0.0 1.6 0.00 0.00 0.00 93 1015.3
20260906011525 20 96 0.0 1.6 0.00 0.00 0.00 92 1015.1
20260906010057 20 92 0.0 3.2 0.00 0.00 0.00 92 1015.1
20260906004511 20 92 0.0 3.2 0.00 0.00 0.00 92 1015.1
20260906003044 20 177 0.0 3.2 0.00 0.00 0.00 92 1015.2
20260906001514 20 91 0.0 1.6 0.00 0.00 0.00 91 1015.3
20260906000046 21 96 0.0 1.6 0.00 0.00 0.00 91 1015.2
20260905234610 21 94 0.0 3.2 0.00 0.00 0.00 90 1015.2
20260905233030 21 179 0.0 1.6 0.00 0.00 0.00 90 1015.4
20260905231601 22 177 1.6 8.0 0.00 0.00 0.00 89 1015.3
20260905230013 22 179 0.0 6.4 0.00 0.00 0.00 89 1015.1
20260905224545 22 172 3.2 6.4 0.00 0.00 0.00 87 1015.0
20260905223014 22 96 1.6 8.0 0.00 0.00 0.00 87 1014.8
20260905221606 22 178 3.2 9.7 0.00 0.00 0.00 86 1014.6
20260905220111 22 176 6.4 16.1 0.00 0.00 0.00 85 1014.5
20260905214524 22 172 3.2 12.9 0.00 0.00 0.00 87 1014.4
20260905213101 22 176 1.6 9.7 0.00 0.00 0.00 86 1014.6
20260905211533 23 168 3.2 8.0 0.00 0.00 0.00 86 1014.7
20260905210057 23 173 4.8 12.9 0.00 0.00 0.00 85 1014.6
20260905204507 23 173 3.2 6.4 0.00 0.00 0.00 88 1014.8
20260905203042 23 171 4.8 8.0 0.00 0.00 0.00 87 1014.8
20260905201509 23 174 3.2 8.0 0.00 0.00 0.00 87 1014.5
20260905200045 23 95 4.8 11.3 0.00 0.00 0.00 87 1014.6
20260905194559 23 95 4.8 12.9 0.00 0.00 0.00 86 1014.6
20260905193029 23 173 3.2 8.0 0.00 0.00 0.00 89 1014.8
20260905191601 22 179 4.8 9.7 0.00 0.00 0.00 89 1014.8
20260905190017 22 176 0.0 4.8 0.00 0.00 0.00 89 1014.9
20260905184550 22 168 4.8 8.0 0.00 0.00 0.00 89 1014.9
20260905183015 22 175 3.2 8.0 0.00 0.00 0.00 89 1014.9
20260905181604 22 176 1.6 8.0 0.00 0.00 0.00 89 1015.0
20260905180001 22 173 4.8 11.3 0.00 0.00 0.00 89 1015.1
20260905174533 22 172 4.8 11.3 0.00 0.00 0.00 89 1014.9
20260905173003 22 169 6.4 14.5 0.00 0.00 0.00 89 1014.9
20260905171542 23 96 4.8 12.9 0.00 0.00 0.00 88 1014.8
20260905170113 22 174 3.2 11.3 0.00 0.00 0.00 89 1014.9
20260905164527 22 171 3.2 12.9 0.00 0.00 0.00 90 1014.9
20260905163059 22 90 4.8 12.9 0.00 0.00 0.00 91 1014.8
20260905161529 22 167 1.6 8.0 0.00 0.00 0.00 92 1014.9
20260905160101 22 172 1.6 4.8 0.00 0.00 0.00 92 1014.9
20260905154515 21 170 3.2 9.7 0.00 0.00 0.00 93 1014.9
20260905153050 21 170 3.2 11.3 0.00 0.00 0.00 93 1014.6
20260905151514 21 168 3.2 9.7 0.00 0.00 0.00 92 1014.6
20260905150045 21 172 3.2 9.7 0.00 0.00 0.00 93 1014.5